Powrót do katalogu

SITRO-AIS-56

AktywnyNawigacjaSSO
NORAD 59809·PAYLOAD·🇷🇺 Russia
Ta nazwa satelity nie została jeszcze potwierdzona przez oficjalne źródła.

Wystrzelony May 16, 2024 z Plesetsk Cosmodrome

Loading…

Następne Przeloty (najbliższe 24 godziny)

TLE

ŚwieżeSource: Space-Track

Epoka: Sep 14, 2026, 08:30 UTC

1 59809U 24092K   26257.35468409  .00016336  00000-0  41644-3 0  9990
2 59809  97.6687  34.0941 0006610 183.5368 176.5831 15.39598583128945

Śledź SITRO-AIS-56 w czasie rzeczywistym z AllMySat

Download on the App Store